STARLINK-31404, 59521

Orbit data source: Space-Track

STARLINK-31404, 59521 is a payload satellite owned by SpaceX/Seattle (US) in LEO that was launched on Wed, 17 Apr 2024 UTC via an FALCON 9 launch vehicle from the Air Force Eastern Test Range (AFETR). Payload-class satellites include a variety of spacecraft equipped with specific instruments for various scientific and technological missions. These include communications satellites like Starlink; space stations such as the ISS; scientific satellites like the Hubble; Earth observation satellites from companies like Planet Labs, Umbra, and HawkEye 360; GPS; miniature CubeSats for education and research; and military/defense satellites.

Loading next visibility...
Identifier
59521, 2024-073L
Orbit
LEO
Country
Flag of USUS
Related business
Manufacturer
SpaceX/Seattle
Mission
Operational spacecraft
Bus & Motor
STARLINK V2M, Unknown motor
Mass
730 kg wet, ~700 kg dry
Launch date (UTC)
2024-04-17 (1 year ago)
Launch vehicle
FALCON 9
Launch site
Air Force Eastern Test Range (AFETR)
Object type
Payload
Rocket body
Debris
Shape & HBR
Unknown
Radar Cross Section
Large (>1 m²)

Expand to show TLE details & history
Last TLE update: 2 days ago

TLE from 2 days ago
0 STARLINK-31404
1 59521U 24073L   25259.18566660 -.00000057  00000-0  74331-5 0  9995
2 59521  42.9971 223.8509 0001207 269.8931  90.1783 15.27570240 79482
Epoch: 2025-09-16T04:27Z
TLE epoch observation values (Epoch: 2025-09-16T04:27:21.594Z)
Latitude
0.00004°
Longitude
161.63138°
Altitude
482.856 km
Speed
7.626 km/s
True Right ascension
14h 55m 24s
True Declination
0° 00' 00"
Sunlit
Object was in daylight at epoch
Visualization orbit readout
Latitude
Unknown
Longitude
Unknown
Altitude
Unknown
Speed
Unknown
Apparent Right ascension
Unknown
Apparent Declination
Unknown
Sunlit
N/A
Visualization observer readout
Local Sidereal Time
14:35:43
Azimuth
Unknown
Elevation
Unknown
Doppler factor
Unknown
Orbital elements
Apogee altitude
485.852 km
Perigee altitude
484.196 km
Semi-major axis
6,863.161 km
Eccentricity
0.00012
Inclination
42.9971°
RAAN
223.8509°
Arg. of periapsis
269.8931°
True anomaly
90.19213°
Mean anomaly
90.1783°
Eccentric anomaly
90.18522°
Mean motion
3.81731 °/min
Orbital period
94.31 mins
BSTAR
0.0000074331
Loading maneuver chart data...
Computing Atmospheric mass density...
Loading historical data...
Loading historical data...
Loading historical data...
Loading historical data...
Loading historical data...
Loading historical data...
Loading historical data...

Documentation

Showing up to 5 results
|